Main page
METAR-TAF:

METAR-TAF

Airports :

Singapore, Singapore

Paya Lebar Air Base

latitude: 01-22N, longitude: 103-55E, elevation: 18 m

Current weather observation

The report was made 2 hours and 24 minutes ago, at 15:00 UTC
Wind 1 kt from the North
Temperature 28°C
Humidity 89%
Pressure 1011 hPa
Visibility 10 km or more
Few clouds at a height of 1800 ft
Broken clouds at a height of 30000 ft

METAR: WSAP 261500Z 01001KT 9999 FEW018 BKN300 28/26 Q1011

Time: 01:24 (17:24 UTC)

Forecast

The report was made 6 hours and 24 minutes ago, at 11:00 UTC
Forecast valid from 26 at 12 UTC to 27 at 18 UTC
Wind 7 kt from the Southeast
Visibility 10 km or more
Few clouds at a height of 1800 ft, Cumulonimbus.
Scattered clouds at a height of 2000 ft
Temporary
from 27 at 06 UTC to 27 at 10 UTC
Visibility: 3000 m
Few clouds at a height of 1200 ft, Cumulonimbus.
Broken clouds at a height of 1500 ft
thunderstorm, rain

TAF: WSAP 261100Z 2612/2718 14007KT 9999 FEW018CB SCT020 TEMPO 2706/2710 3000 TSRA FEW012CB BKN015

Weather observations and forecasts of more than 4000 airports (METAR and TAF reports).

The available stations are represented by yellow and red dots on the map.

Hover mouse over dot to see the name of the station.

Then click to see weather observations and forecasts.

To change the map : click on the green buttons with a black cross to zoom in, on the green button with a dash to zoom out, or on the green arrows for adjacent maps.


METAR-TAF: